Regional Weather Roundup
Issued by NWS

Home | Current Version | Previous Version | Text Only | Print | Product List | Glossary On
Versions: 1 2 3 4 5 6 7 8 9 10 11 12 13 14 15 16 17 18 19 20 21 22 23 24 25 26 27 28 29 30 31 32 33 34 35 36 37 38 39 40 41 42 43 44 45 46 47 48 49 50
000
ASUS43 KLSX 230059
RWRMO

WEATHER SUMMARY FOR MISSOURI
NATIONAL WEATHER SERVICE SPRINGFIELD MO
700 PM CST MON DEC 22 2014

NOTE: "FAIR" INDICATES FEW OR NO CLOUDS BELOW 12,000 FEET WITH NO
       SIGNIFICANT WEATHER AND/OR OBSTRUCTIONS TO VISIBILITY.
       CURRENT SKY AND/OR WEATHER CONDITIONS ARE NOT AVAILABLE FOR
       CHILLICOTHE AND FARMINGTON.

MOZ001>031-035>038-043-044-053-054-230200-
...NORTHERN AND WESTERN MISSOURI...

CITY           SKY/WX    TMP DP  RH WIND       PRES   REMARKS
KANSAS CTY INT CLOUDY    42  40  92 SW9       29.49R
KANSAS C DTWN  CLOUDY    46  41  82 SW9       29.50R
LEE`S SUMMIT   MOCLDY    44  40  85 W6        29.50R
ST JOSEPH      CLOUDY    43  41  93 W10       29.48R
CHILLICOTHE      N/A     45  44  97 S7        29.46S
KIRKSVILLE     LGT RAIN  44  44 100 S6        29.47S FOG

$$
MOZ066>068-077>081-088>096-101>105-230200-
...SOUTHWEST MISSOURI...

CITY           SKY/WX    TMP DP  RH WIND       PRES   REMARKS
SPRINGFIELD    CLOUDY    48  45  89 W12       29.55R
JOPLIN         CLOUDY    47  44  90 W9        29.59R

$$
MOZ032>034-039>042-045>050-055>058-069>072-230200-
...CENTRAL MISSOURI...

CITY           SKY/WX    TMP DP  RH WIND       PRES   REMARKS
COLUMBIA       RAIN      48  47  96 S10       29.48R
JEFFERSON CITY LGT RAIN  49  47  93 S6        29.50R
ROLLA          LGT RAIN  48  46  93 S12       29.49S
SEDALIA        CLOUDY    48  46  93 SW9       29.50R
OSAGE BEACH    CLOUDY    48  45  87 SW7       29.51R

$$
MOZ051-052-059>065-230200-
...EAST CENTRAL MISSOURI...

CITY           SKY/WX    TMP DP  RH WIND       PRES   REMARKS
ST LOUIS INTL  CLOUDY    50  47  89 SE12      29.54S FOG
SPIRIT OF STL  LGT RAIN  49  47  93 VRB3      29.52S
ST CHARLES     CLOUDY    47  46  97 SE7       29.52F FOG

$$
MOZ072>076-082>087-097>100-106>115-230200-
...SOUTH CENTRAL AND SOUTHEAST MISSOURI...

CITY           SKY/WX    TMP DP  RH WIND       PRES   REMARKS
CAPE GIRARDEAU LGT RAIN  52  52 100 S9        29.60R FOG
FARMINGTON     CLOUDY    50  48  93 SE9       29.56F
POPLAR BLUFF   CLOUDY    53  51  93 S8        29.57S
WEST PLAINS    CLOUDY    50  47  89 SW9       29.56R

$$



USA.gov is the U.S. government's official web portal to all federal, state and local government web resources and services.